Year,Month,Day,Hour,Minute,Value (Times are PST for temperature in C)
2019,04,02,00,00,10.30
2019,04,02,00,01,10.30
2019,04,02,00,02,10.30
2019,04,02,00,03,10.30
2019,04,02,00,04,10.30
2019,04,02,00,05,10.30
2019,04,02,00,06,10.30
2019,04,02,00,07,10.30
2019,04,02,00,08,10.30
2019,04,02,00,09,10.30
2019,04,02,00,10,10.30
2019,04,02,00,11,10.20
2019,04,02,00,12,10.10
2019,04,02,00,13,10.10
2019,04,02,00,14,10.10
2019,04,02,00,15,10.10
2019,04,02,00,16,10.10
2019,04,02,00,17,10.10
2019,04,02,00,18,10.10
2019,04,02,00,19,10.10
2019,04,02,00,20,10.10
2019,04,02,00,21,10.00
2019,04,02,00,22,10.00
2019,04,02,00,23,10.00
2019,04,02,00,24,10.00
2019,04,02,00,25,10.00
2019,04,02,00,26,10.00
2019,04,02,00,27,9.90
2019,04,02,00,28,9.90
2019,04,02,00,29,9.90
2019,04,02,00,30,9.80
2019,04,02,00,31,9.80
2019,04,02,00,32,9.90
2019,04,02,00,33,9.90
2019,04,02,00,34,9.90
2019,04,02,00,35,9.90
2019,04,02,00,36,10.00
2019,04,02,00,37,10.10
2019,04,02,00,38,10.10
2019,04,02,00,39,10.10
2019,04,02,00,40,10.20
2019,04,02,00,41,10.20
2019,04,02,00,42,10.20
2019,04,02,00,43,10.20
2019,04,02,00,44,10.20
2019,04,02,00,45,10.20
2019,04,02,00,46,10.20
2019,04,02,00,47,10.20
2019,04,02,00,48,10.10
2019,04,02,00,49,10.10
2019,04,02,00,50,10.00
2019,04,02,00,51,10.00
2019,04,02,00,52,9.90
2019,04,02,00,53,9.90
2019,04,02,00,54,9.90
2019,04,02,00,55,9.80
2019,04,02,00,56,9.80
2019,04,02,00,57,9.80
2019,04,02,00,58,9.80
2019,04,02,00,59,9.70
2019,04,02,01,00,9.70
2019,04,02,01,01,9.70
2019,04,02,01,02,9.70
2019,04,02,01,03,9.60
2019,04,02,01,04,9.60
2019,04,02,01,05,9.50
2019,04,02,01,06,9.40
2019,04,02,01,07,9.40
2019,04,02,01,08,9.30
2019,04,02,01,09,9.20
2019,04,02,01,10,9.20
2019,04,02,01,11,9.10
2019,04,02,01,12,9.00
2019,04,02,01,13,9.00
2019,04,02,01,14,8.90
2019,04,02,01,15,8.90
2019,04,02,01,16,8.80
2019,04,02,01,17,8.70
2019,04,02,01,18,8.70
2019,04,02,01,19,8.70
2019,04,02,01,20,8.60
2019,04,02,01,21,8.60
2019,04,02,01,22,8.60
2019,04,02,01,23,8.70
2019,04,02,01,24,8.70
2019,04,02,01,25,8.70
2019,04,02,01,26,8.70
2019,04,02,01,27,8.70
2019,04,02,01,28,8.80
2019,04,02,01,29,8.80
2019,04,02,01,30,8.90
2019,04,02,01,31,8.90
2019,04,02,01,32,8.90
2019,04,02,01,33,9.00
2019,04,02,01,34,9.00
2019,04,02,01,35,9.10
2019,04,02,01,36,9.20
2019,04,02,01,37,9.20
2019,04,02,01,38,9.20
2019,04,02,01,39,9.20
2019,04,02,01,40,9.20
2019,04,02,01,41,9.20
2019,04,02,01,42,9.30
2019,04,02,01,43,9.30
2019,04,02,01,44,9.40
2019,04,02,01,45,9.40
2019,04,02,01,46,9.40
2019,04,02,01,47,9.40
2019,04,02,01,48,9.40
2019,04,02,01,49,9.40
2019,04,02,01,50,9.50
2019,04,02,01,51,9.50
2019,04,02,01,52,9.60
2019,04,02,01,53,9.60
2019,04,02,01,54,9.60
2019,04,02,01,55,9.60
2019,04,02,01,56,9.60
2019,04,02,01,57,9.60
2019,04,02,01,58,9.50
2019,04,02,01,59,9.50
2019,04,02,02,00,9.40
2019,04,02,02,01,9.40
2019,04,02,02,02,9.40
2019,04,02,02,03,9.40
2019,04,02,02,04,9.30
2019,04,02,02,05,9.30
2019,04,02,02,06,9.30
2019,04,02,02,07,9.20
2019,04,02,02,08,9.20
2019,04,02,02,09,9.20
2019,04,02,02,10,9.20
2019,04,02,02,11,9.20
2019,04,02,02,12,9.20
2019,04,02,02,13,9.20
2019,04,02,02,14,9.20
2019,04,02,02,15,9.20
2019,04,02,02,16,9.20
2019,04,02,02,17,9.20
2019,04,02,02,18,9.20
2019,04,02,02,19,9.20
2019,04,02,02,20,9.20
2019,04,02,02,21,9.20
2019,04,02,02,22,9.10
2019,04,02,02,23,9.10
2019,04,02,02,24,9.10
2019,04,02,02,25,9.10
2019,04,02,02,26,9.00
2019,04,02,02,27,9.00
2019,04,02,02,28,9.00
2019,04,02,02,29,9.00
2019,04,02,02,30,9.00
2019,04,02,02,31,9.00
2019,04,02,02,32,9.00
2019,04,02,02,33,9.00
2019,04,02,02,34,9.00
2019,04,02,02,35,9.00
2019,04,02,02,36,9.00
2019,04,02,02,37,9.00
2019,04,02,02,38,9.00
2019,04,02,02,39,9.00
2019,04,02,02,40,9.00
2019,04,02,02,41,9.00
2019,04,02,02,42,9.00
2019,04,02,02,43,9.00
2019,04,02,02,44,9.00
2019,04,02,02,45,9.00
2019,04,02,02,46,8.90
2019,04,02,02,47,8.90
2019,04,02,02,48,8.90
2019,04,02,02,49,8.80
2019,04,02,02,50,8.80
2019,04,02,02,51,8.70
2019,04,02,02,52,8.70
2019,04,02,02,53,8.70
2019,04,02,02,54,8.60
2019,04,02,02,55,8.60
2019,04,02,02,56,8.60
2019,04,02,02,57,8.60
2019,04,02,02,58,8.60
2019,04,02,02,59,8.60
2019,04,02,03,00,8.60
2019,04,02,03,01,8.70
2019,04,02,03,02,8.70
2019,04,02,03,03,8.70
2019,04,02,03,04,8.80
2019,04,02,03,05,8.80
2019,04,02,03,06,8.70
2019,04,02,03,07,8.70
2019,04,02,03,08,8.60
2019,04,02,03,09,8.60
2019,04,02,03,10,8.50
2019,04,02,03,11,8.40
2019,04,02,03,12,8.40
2019,04,02,03,13,8.40
2019,04,02,03,14,8.40
2019,04,02,03,15,8.50
2019,04,02,03,16,8.60
2019,04,02,03,17,8.60
2019,04,02,03,18,8.70
2019,04,02,03,19,8.70
2019,04,02,03,20,8.70
2019,04,02,03,21,8.70
2019,04,02,03,22,8.70
2019,04,02,03,23,8.70
2019,04,02,03,24,8.60
2019,04,02,03,25,8.60
2019,04,02,03,26,8.60
2019,04,02,03,27,8.60
2019,04,02,03,28,8.60
2019,04,02,03,29,8.50
2019,04,02,03,30,8.50
2019,04,02,03,31,8.40
2019,04,02,03,32,8.40
2019,04,02,03,33,8.40
2019,04,02,03,34,8.40
2019,04,02,03,35,8.30
2019,04,02,03,36,8.30
2019,04,02,03,37,8.30
2019,04,02,03,38,8.20
2019,04,02,03,39,8.20
2019,04,02,03,40,8.20
2019,04,02,03,41,8.20
2019,04,02,03,42,8.10
2019,04,02,03,43,8.10
2019,04,02,03,44,8.10
2019,04,02,03,45,8.10
2019,04,02,03,46,8.10
2019,04,02,03,47,8.10
2019,04,02,03,48,8.10
2019,04,02,03,49,8.00
2019,04,02,03,50,8.00
2019,04,02,03,51,8.00
2019,04,02,03,52,8.00
2019,04,02,03,53,8.00
2019,04,02,03,54,8.10
2019,04,02,03,55,8.10
2019,04,02,03,56,8.10
2019,04,02,03,57,8.10
2019,04,02,03,58,8.20
2019,04,02,03,59,8.20
2019,04,02,04,00,8.20
2019,04,02,04,01,8.20
2019,04,02,04,02,8.20
2019,04,02,04,03,8.20
2019,04,02,04,04,8.20
2019,04,02,04,05,8.20
2019,04,02,04,06,8.20
2019,04,02,04,07,8.20
2019,04,02,04,08,8.20
2019,04,02,04,09,8.20
2019,04,02,04,10,8.10
2019,04,02,04,11,8.00
2019,04,02,04,12,8.00
2019,04,02,04,13,8.00
2019,04,02,04,14,7.90
2019,04,02,04,15,7.90
2019,04,02,04,16,7.90
2019,04,02,04,17,8.00
2019,04,02,04,18,8.00
2019,04,02,04,19,8.00
2019,04,02,04,20,8.10
2019,04,02,04,21,8.10
2019,04,02,04,22,8.10
2019,04,02,04,23,8.20
2019,04,02,04,24,8.20
2019,04,02,04,25,8.20
2019,04,02,04,26,8.20
2019,04,02,04,27,8.30
2019,04,02,04,28,8.30
2019,04,02,04,29,8.40
2019,04,02,04,30,8.40
2019,04,02,04,31,8.40
2019,04,02,04,32,8.40
2019,04,02,04,33,8.50
2019,04,02,04,34,8.50
2019,04,02,04,35,8.50
2019,04,02,04,36,8.60
2019,04,02,04,37,8.50
2019,04,02,04,38,8.50
2019,04,02,04,39,8.50
2019,04,02,04,40,8.50
2019,04,02,04,41,8.50
2019,04,02,04,42,8.50
2019,04,02,04,43,8.60
2019,04,02,04,44,8.60
2019,04,02,04,45,8.60
2019,04,02,04,46,8.60
2019,04,02,04,47,8.70
2019,04,02,04,48,8.70
2019,04,02,04,49,8.70
2019,04,02,04,50,8.70
2019,04,02,04,51,8.70
2019,04,02,04,52,8.70
2019,04,02,04,53,8.60
2019,04,02,04,54,8.50
2019,04,02,04,55,8.50
2019,04,02,04,56,8.40
2019,04,02,04,57,8.30
2019,04,02,04,58,8.30
2019,04,02,04,59,8.20
2019,04,02,05,00,8.10
2019,04,02,05,01,8.10
2019,04,02,05,02,8.00
2019,04,02,05,03,7.90
2019,04,02,05,04,7.90
2019,04,02,05,05,7.90
2019,04,02,05,06,7.80
2019,04,02,05,07,7.80
2019,04,02,05,08,7.70
2019,04,02,05,09,7.70
2019,04,02,05,10,7.70
2019,04,02,05,11,7.70
2019,04,02,05,12,7.70
2019,04,02,05,13,7.70
2019,04,02,05,14,7.80
2019,04,02,05,15,7.80
2019,04,02,05,16,7.80
2019,04,02,05,17,7.80
2019,04,02,05,18,7.80
2019,04,02,05,19,7.80
2019,04,02,05,20,7.90
2019,04,02,05,21,7.90
2019,04,02,05,22,7.90
2019,04,02,05,23,7.80
2019,04,02,05,24,7.80
2019,04,02,05,25,7.80
2019,04,02,05,26,7.70
2019,04,02,05,27,7.70
2019,04,02,05,28,7.70
2019,04,02,05,29,7.70
2019,04,02,05,30,7.60
2019,04,02,05,31,7.60
2019,04,02,05,32,7.60
2019,04,02,05,33,7.60
2019,04,02,05,34,7.60
2019,04,02,05,35,7.60
2019,04,02,05,36,7.60
2019,04,02,05,37,7.60
2019,04,02,05,38,7.70
2019,04,02,05,39,7.70
2019,04,02,05,40,7.70
2019,04,02,05,41,7.80
2019,04,02,05,42,7.80
2019,04,02,05,43,7.80
2019,04,02,05,44,7.90
2019,04,02,05,45,7.90
2019,04,02,05,46,7.90
2019,04,02,05,47,7.90
2019,04,02,05,48,7.90
2019,04,02,05,49,7.90
2019,04,02,05,50,7.90
2019,04,02,05,51,8.00
2019,04,02,05,52,8.00
2019,04,02,05,53,8.00
2019,04,02,05,54,8.00
2019,04,02,05,55,8.10
2019,04,02,05,56,8.10
2019,04,02,05,57,8.10
2019,04,02,05,58,8.10
2019,04,02,05,59,8.20
2019,04,02,06,00,8.20
2019,04,02,06,01,8.20
2019,04,02,06,02,8.10
2019,04,02,06,03,8.10
2019,04,02,06,04,8.10
2019,04,02,06,05,8.10
2019,04,02,06,06,8.00
2019,04,02,06,07,8.00
2019,04,02,06,08,7.90
2019,04,02,06,09,7.90
2019,04,02,06,10,7.80
2019,04,02,06,11,7.80
2019,04,02,06,12,7.80
2019,04,02,06,13,7.70
2019,04,02,06,14,7.70
2019,04,02,06,15,7.70
2019,04,02,06,16,7.60
2019,04,02,06,17,7.60
2019,04,02,06,18,7.60
2019,04,02,06,19,7.50
2019,04,02,06,20,7.50
2019,04,02,06,21,7.40
2019,04,02,06,22,7.40
2019,04,02,06,23,7.40
2019,04,02,06,24,7.40
2019,04,02,06,25,7.40
2019,04,02,06,26,7.40
2019,04,02,06,27,7.40
2019,04,02,06,28,7.40
2019,04,02,06,29,7.40
2019,04,02,06,30,7.40
2019,04,02,06,31,7.40
2019,04,02,06,32,7.30
2019,04,02,06,33,7.30
2019,04,02,06,34,7.30
2019,04,02,06,35,7.30
2019,04,02,06,36,7.30
2019,04,02,06,37,7.30
2019,04,02,06,38,7.30
2019,04,02,06,39,7.30
2019,04,02,06,40,7.30
2019,04,02,06,41,7.20
2019,04,02,06,42,7.20
2019,04,02,06,43,7.20
2019,04,02,06,44,7.20
2019,04,02,06,45,7.10
2019,04,02,06,46,7.10
2019,04,02,06,47,7.00
2019,04,02,06,48,7.00
2019,04,02,06,49,6.90
2019,04,02,06,50,6.90
2019,04,02,06,51,6.90
2019,04,02,06,52,6.90
2019,04,02,06,53,6.90
2019,04,02,06,54,6.90
2019,04,02,06,55,6.90
2019,04,02,06,56,6.90
2019,04,02,06,57,6.90
2019,04,02,06,58,6.90
2019,04,02,06,59,6.90
2019,04,02,07,00,7.00
2019,04,02,07,01,7.00
2019,04,02,07,02,7.10
2019,04,02,07,03,7.10
2019,04,02,07,04,7.10
2019,04,02,07,05,7.20
2019,04,02,07,06,7.20
2019,04,02,07,07,7.20
2019,04,02,07,08,7.20
2019,04,02,07,09,7.20
2019,04,02,07,10,7.30
2019,04,02,07,11,7.30
2019,04,02,07,12,7.30
2019,04,02,07,13,7.30
2019,04,02,07,14,7.40
2019,04,02,07,15,7.40
2019,04,02,07,16,7.40
2019,04,02,07,17,7.50
2019,04,02,07,18,7.50
2019,04,02,07,19,7.60
2019,04,02,07,20,7.60
2019,04,02,07,21,7.70
2019,04,02,07,22,7.70
2019,04,02,07,23,7.70
2019,04,02,07,24,7.70
2019,04,02,07,25,7.70
2019,04,02,07,26,7.70
2019,04,02,07,27,7.70
2019,04,02,07,28,7.70
2019,04,02,07,29,7.70
2019,04,02,07,30,7.70
2019,04,02,07,31,7.70
2019,04,02,07,32,7.70
2019,04,02,07,33,7.70
2019,04,02,07,34,7.70
2019,04,02,07,35,7.80
2019,04,02,07,36,7.80
2019,04,02,07,37,7.90
2019,04,02,07,38,7.90
2019,04,02,07,39,7.90
2019,04,02,07,40,7.90
2019,04,02,07,41,7.90
2019,04,02,07,42,8.00
2019,04,02,07,43,8.00
2019,04,02,07,44,8.10
2019,04,02,07,45,8.10
2019,04,02,07,46,8.10
2019,04,02,07,47,8.10
2019,04,02,07,48,8.10
2019,04,02,07,49,8.20
2019,04,02,07,50,8.20
2019,04,02,07,51,8.20
2019,04,02,07,52,8.30
2019,04,02,07,53,8.30
2019,04,02,07,54,8.40
2019,04,02,07,55,8.50
2019,04,02,07,56,8.50
2019,04,02,07,57,8.60
2019,04,02,07,58,8.70
2019,04,02,07,59,8.70
2019,04,02,08,00,8.80
2019,04,02,08,01,8.80
2019,04,02,08,02,8.90
2019,04,02,08,03,9.00
2019,04,02,08,04,9.00
2019,04,02,08,05,9.10
2019,04,02,08,06,9.10
2019,04,02,08,07,9.20
2019,04,02,08,08,9.20
2019,04,02,08,09,9.20
2019,04,02,08,10,9.20
2019,04,02,08,11,9.30
2019,04,02,08,12,9.30
2019,04,02,08,13,9.30
2019,04,02,08,14,9.30
2019,04,02,08,15,9.40
2019,04,02,08,16,9.40
2019,04,02,08,17,9.50
2019,04,02,08,18,9.60
2019,04,02,08,19,9.60
2019,04,02,08,20,9.70
2019,04,02,08,21,9.70
2019,04,02,08,22,9.80
2019,04,02,08,23,9.90
2019,04,02,08,24,10.00
2019,04,02,08,25,10.10
2019,04,02,08,26,10.20
2019,04,02,08,27,10.30
2019,04,02,08,28,10.40
2019,04,02,08,29,10.50
2019,04,02,08,30,10.60
2019,04,02,08,31,10.70
2019,04,02,08,32,10.90
2019,04,02,08,33,11.00
2019,04,02,08,34,11.00
2019,04,02,08,35,11.10
2019,04,02,08,36,11.10
2019,04,02,08,37,11.20
2019,04,02,08,38,11.30
2019,04,02,08,39,11.40
2019,04,02,08,40,11.50
2019,04,02,08,41,11.60
2019,04,02,08,42,11.70
2019,04,02,08,43,11.80
2019,04,02,08,44,11.90
2019,04,02,08,45,12.10
2019,04,02,08,46,12.20
2019,04,02,08,47,12.40
2019,04,02,08,48,12.50
2019,04,02,08,49,12.60
2019,04,02,08,50,12.60
2019,04,02,08,51,12.60
2019,04,02,08,52,12.70
2019,04,02,08,53,12.70
2019,04,02,08,54,12.70
2019,04,02,08,55,12.80
2019,04,02,08,56,12.90
2019,04,02,08,57,12.90
2019,04,02,08,58,13.00
2019,04,02,08,59,13.10
2019,04,02,09,00,13.20
2019,04,02,09,01,13.30
2019,04,02,09,02,13.40
2019,04,02,09,03,13.50
2019,04,02,09,04,13.60
2019,04,02,09,05,13.70
2019,04,02,09,06,13.80
2019,04,02,09,07,13.90
2019,04,02,09,08,14.00
2019,04,02,09,09,14.10
2019,04,02,09,10,14.10
2019,04,02,09,11,14.20
2019,04,02,09,12,14.20
2019,04,02,09,13,14.30
2019,04,02,09,14,14.30
2019,04,02,09,15,14.30
2019,04,02,09,16,14.40
2019,04,02,09,17,14.40
2019,04,02,09,18,14.40
2019,04,02,09,19,14.50
2019,04,02,09,20,14.50
2019,04,02,09,21,14.60
2019,04,02,09,22,14.70
2019,04,02,09,23,14.80
2019,04,02,09,24,14.90
2019,04,02,09,25,15.00
2019,04,02,09,26,15.00
2019,04,02,09,27,15.00
2019,04,02,09,28,15.20
2019,04,02,09,29,15.30
2019,04,02,09,30,15.40
2019,04,02,09,31,15.50
2019,04,02,09,32,15.60
2019,04,02,09,33,15.70
2019,04,02,09,34,15.70
2019,04,02,09,35,15.60
2019,04,02,09,36,15.60
2019,04,02,09,37,15.50
2019,04,02,09,38,15.40
2019,04,02,09,39,15.20
2019,04,02,09,40,15.10
2019,04,02,09,41,15.00
2019,04,02,09,42,15.00
2019,04,02,09,43,14.90
2019,04,02,09,44,14.80
2019,04,02,09,45,14.80
2019,04,02,09,46,14.80
2019,04,02,09,47,14.80
2019,04,02,09,48,14.80
2019,04,02,09,49,14.80
2019,04,02,09,50,14.70
2019,04,02,09,51,14.70
2019,04,02,09,52,14.60
2019,04,02,09,53,14.60
2019,04,02,09,54,14.60
2019,04,02,09,55,14.60
2019,04,02,09,56,14.60
2019,04,02,09,57,14.70
2019,04,02,09,58,14.80
2019,04,02,09,59,14.90
2019,04,02,10,00,15.00
2019,04,02,10,01,15.00
2019,04,02,10,02,15.00
2019,04,02,10,03,15.00
2019,04,02,10,04,15.00
2019,04,02,10,05,15.00
2019,04,02,10,06,15.00
2019,04,02,10,07,15.10
2019,04,02,10,08,15.20
2019,04,02,10,09,15.30
2019,04,02,10,10,15.40
2019,04,02,10,11,15.50
2019,04,02,10,12,15.60
2019,04,02,10,13,15.70
2019,04,02,10,14,15.70
2019,04,02,10,15,15.70
2019,04,02,10,16,15.70
2019,04,02,10,17,15.70
2019,04,02,10,18,15.60
2019,04,02,10,19,15.60
2019,04,02,10,20,15.50
2019,04,02,10,21,15.50
2019,04,02,10,22,15.40
2019,04,02,10,23,15.40
2019,04,02,10,24,15.40
2019,04,02,10,25,15.30
2019,04,02,10,26,15.20
2019,04,02,10,27,15.10
2019,04,02,10,28,15.00
2019,04,02,10,29,15.00
2019,04,02,10,30,15.00
2019,04,02,10,31,15.00
2019,04,02,10,32,15.00
2019,04,02,10,33,15.00
2019,04,02,10,34,15.00
2019,04,02,10,35,15.00
2019,04,02,10,36,15.00
2019,04,02,10,37,15.00
2019,04,02,10,38,15.00
2019,04,02,10,39,14.90
2019,04,02,10,40,14.80
2019,04,02,10,41,14.80
2019,04,02,10,42,14.70
2019,04,02,10,43,14.70
2019,04,02,10,44,14.70
2019,04,02,10,45,14.70
2019,04,02,10,46,14.70
2019,04,02,10,47,14.80
2019,04,02,10,48,14.80
2019,04,02,10,49,14.90
2019,04,02,10,50,15.00
2019,04,02,10,51,15.00
2019,04,02,10,52,15.00
2019,04,02,10,53,15.00
2019,04,02,10,54,15.00
2019,04,02,10,55,15.00
2019,04,02,10,56,15.00
2019,04,02,10,57,15.00
2019,04,02,10,58,15.00
2019,04,02,10,59,15.10
2019,04,02,11,00,15.10
2019,04,02,11,01,15.10
2019,04,02,11,02,15.20
2019,04,02,11,03,15.20
2019,04,02,11,04,15.20
2019,04,02,11,05,15.10
2019,04,02,11,06,15.10
2019,04,02,11,07,15.20
2019,04,02,11,08,15.20
2019,04,02,11,09,15.20
2019,04,02,11,10,15.30
2019,04,02,11,11,15.30
2019,04,02,11,12,15.30
2019,04,02,11,13,15.30
2019,04,02,11,14,15.30
2019,04,02,11,15,15.30
2019,04,02,11,16,15.30
2019,04,02,11,17,15.30
2019,04,02,11,18,15.30
2019,04,02,11,19,15.30
2019,04,02,11,20,15.30
2019,04,02,11,21,15.30
2019,04,02,11,22,15.30
2019,04,02,11,23,15.30
2019,04,02,11,24,15.30
2019,04,02,11,25,15.20
2019,04,02,11,26,15.20
2019,04,02,11,27,15.20
2019,04,02,11,28,15.20
2019,04,02,11,29,15.20
2019,04,02,11,30,15.20
2019,04,02,11,31,15.20
2019,04,02,11,32,15.30
2019,04,02,11,33,15.20
2019,04,02,11,34,15.20
2019,04,02,11,35,15.20
2019,04,02,11,36,15.20
2019,04,02,11,37,15.20
2019,04,02,11,38,15.20
2019,04,02,11,39,15.20
2019,04,02,11,40,15.20
2019,04,02,11,41,15.30
2019,04,02,11,42,15.30
2019,04,02,11,43,15.40
2019,04,02,11,44,15.40
2019,04,02,11,45,15.40
2019,04,02,11,46,15.40
2019,04,02,11,47,15.40
2019,04,02,11,48,15.40
2019,04,02,11,49,15.40
2019,04,02,11,50,15.40
2019,04,02,11,51,15.40
2019,04,02,11,52,15.40
2019,04,02,11,53,15.40
2019,04,02,11,54,15.50
2019,04,02,11,55,15.50
2019,04,02,11,56,15.60
2019,04,02,11,57,15.60
2019,04,02,11,58,15.70
2019,04,02,11,59,15.70
2019,04,02,12,00,15.70
2019,04,02,12,01,15.70
2019,04,02,12,02,15.80
2019,04,02,12,03,15.80
2019,04,02,12,04,15.80
2019,04,02,12,05,15.80
2019,04,02,12,06,15.70
2019,04,02,12,07,15.70
2019,04,02,12,08,15.70
2019,04,02,12,09,15.60
2019,04,02,12,10,15.50
2019,04,02,12,11,15.50
2019,04,02,12,12,15.40
2019,04,02,12,13,15.40
2019,04,02,12,14,15.40
2019,04,02,12,15,15.40
2019,04,02,12,16,15.40
2019,04,02,12,17,15.40
2019,04,02,12,18,15.40
2019,04,02,12,19,15.40
2019,04,02,12,20,15.40
2019,04,02,12,21,15.30
2019,04,02,12,22,15.30
2019,04,02,12,23,15.30
2019,04,02,12,24,15.30
2019,04,02,12,25,15.30
2019,04,02,12,26,15.30
2019,04,02,12,27,15.30
2019,04,02,12,28,15.20
2019,04,02,12,29,15.20
2019,04,02,12,30,15.10
2019,04,02,12,31,15.00
2019,04,02,12,32,15.00
2019,04,02,12,33,15.00
2019,04,02,12,34,15.00
2019,04,02,12,35,15.00
2019,04,02,12,36,15.00
2019,04,02,12,37,15.00
2019,04,02,12,38,15.00
2019,04,02,12,39,15.00
2019,04,02,12,40,15.00
2019,04,02,12,41,14.90
2019,04,02,12,42,14.90
2019,04,02,12,43,14.80
2019,04,02,12,44,14.80
2019,04,02,12,45,14.80
2019,04,02,12,46,14.80
2019,04,02,12,47,14.80
2019,04,02,12,48,14.70
2019,04,02,12,49,14.70
2019,04,02,12,50,14.60
2019,04,02,12,51,14.60
2019,04,02,12,52,14.50
2019,04,02,12,53,14.40
2019,04,02,12,54,14.40
2019,04,02,12,55,14.30
2019,04,02,12,56,14.30
2019,04,02,12,57,14.30
2019,04,02,12,58,14.30
2019,04,02,12,59,14.30
2019,04,02,13,00,14.30
2019,04,02,13,01,14.30
2019,04,02,13,02,14.30
2019,04,02,13,03,14.30
2019,04,02,13,04,14.30
2019,04,02,13,05,14.30
2019,04,02,13,06,14.30
2019,04,02,13,07,14.30
2019,04,02,13,08,14.40
2019,04,02,13,09,14.40
2019,04,02,13,10,14.50
2019,04,02,13,11,14.60
2019,04,02,13,12,14.60
2019,04,02,13,13,14.70
2019,04,02,13,14,14.80
2019,04,02,13,15,14.80
2019,04,02,13,16,14.80
2019,04,02,13,17,14.90
2019,04,02,13,18,15.00
2019,04,02,13,19,15.00
2019,04,02,13,20,15.00
2019,04,02,13,21,15.00
2019,04,02,13,22,15.10
2019,04,02,13,23,15.20
2019,04,02,13,24,15.30
2019,04,02,13,25,15.40
2019,04,02,13,26,15.40
2019,04,02,13,27,15.40
2019,04,02,13,28,15.40
2019,04,02,13,29,15.40
2019,04,02,13,30,15.50
2019,04,02,13,31,15.50
2019,04,02,13,32,15.60
2019,04,02,13,33,15.70
2019,04,02,13,34,15.80
2019,04,02,13,35,15.90
2019,04,02,13,36,16.00
2019,04,02,13,37,16.00
2019,04,02,13,38,16.00
2019,04,02,13,39,16.10
2019,04,02,13,40,16.00
2019,04,02,13,41,15.90
2019,04,02,13,42,15.90
2019,04,02,13,43,15.90
2019,04,02,13,44,15.90
2019,04,02,13,45,15.90
2019,04,02,13,46,15.90
2019,04,02,13,47,16.00
2019,04,02,13,48,16.00
2019,04,02,13,49,16.10
2019,04,02,13,50,16.10
2019,04,02,13,51,16.20
2019,04,02,13,52,16.20
2019,04,02,13,53,16.20
2019,04,02,13,54,16.20
2019,04,02,13,55,16.20
2019,04,02,13,56,16.10
2019,04,02,13,57,16.10
2019,04,02,13,58,16.10
2019,04,02,13,59,16.10
2019,04,02,14,00,16.10
2019,04,02,14,01,16.20
2019,04,02,14,02,16.20
2019,04,02,14,03,16.20
2019,04,02,14,04,16.30
2019,04,02,14,05,16.30
2019,04,02,14,06,16.30
2019,04,02,14,07,16.30
2019,04,02,14,08,16.20
2019,04,02,14,09,16.20
2019,04,02,14,10,16.20
2019,04,02,14,11,16.20
2019,04,02,14,12,16.30
2019,04,02,14,13,16.30
2019,04,02,14,14,16.40
2019,04,02,14,15,16.50
2019,04,02,14,16,16.60
2019,04,02,14,17,16.60
2019,04,02,14,18,16.70
2019,04,02,14,19,16.70
2019,04,02,14,20,16.70
2019,04,02,14,21,16.80
2019,04,02,14,22,16.80
2019,04,02,14,23,16.80
2019,04,02,14,24,16.80
2019,04,02,14,25,16.80
2019,04,02,14,26,16.80
2019,04,02,14,27,16.80
2019,04,02,14,28,16.80
2019,04,02,14,29,16.80
2019,04,02,14,30,16.90
2019,04,02,14,31,16.90
2019,04,02,14,32,17.00
2019,04,02,14,33,17.00
2019,04,02,14,34,17.10
2019,04,02,14,35,17.10
2019,04,02,14,36,17.10
2019,04,02,14,37,17.20
2019,04,02,14,38,17.20
2019,04,02,14,39,17.20
2019,04,02,14,40,17.20
2019,04,02,14,41,17.10
2019,04,02,14,42,17.10
2019,04,02,14,43,17.00
2019,04,02,14,44,16.90
2019,04,02,14,45,16.80
2019,04,02,14,46,16.80
2019,04,02,14,47,16.80
2019,04,02,14,48,16.70
2019,04,02,14,49,16.70
2019,04,02,14,50,16.70
2019,04,02,14,51,16.60
2019,04,02,14,52,16.60
2019,04,02,14,53,16.50
2019,04,02,14,54,16.50
2019,04,02,14,55,16.50
2019,04,02,14,56,16.40
2019,04,02,14,57,16.40
2019,04,02,14,58,16.40
2019,04,02,14,59,16.50
2019,04,02,15,00,16.50
2019,04,02,15,01,16.60
2019,04,02,15,02,16.60
2019,04,02,15,03,16.70
2019,04,02,15,04,16.70
2019,04,02,15,05,16.80
2019,04,02,15,06,16.80
2019,04,02,15,07,16.80
2019,04,02,15,08,16.80
2019,04,02,15,09,16.80
2019,04,02,15,10,16.80
2019,04,02,15,11,16.70
2019,04,02,15,12,16.70
2019,04,02,15,13,16.70
2019,04,02,15,14,16.70
2019,04,02,15,15,16.60
2019,04,02,15,16,16.60
2019,04,02,15,17,16.60
2019,04,02,15,18,16.60
2019,04,02,15,19,16.70
2019,04,02,15,20,16.70
2019,04,02,15,21,16.70
2019,04,02,15,22,16.60
2019,04,02,15,23,16.60
2019,04,02,15,24,16.60
2019,04,02,15,25,16.60
2019,04,02,15,26,16.50
2019,04,02,15,27,16.50
2019,04,02,15,28,16.50
2019,04,02,15,29,16.40
2019,04,02,15,30,16.40
2019,04,02,15,31,16.40
2019,04,02,15,32,16.40
2019,04,02,15,33,16.40
2019,04,02,15,34,16.40
2019,04,02,15,35,16.40
2019,04,02,15,36,16.40
2019,04,02,15,37,16.40
2019,04,02,15,38,16.30
2019,04,02,15,39,16.30
2019,04,02,15,40,16.30
2019,04,02,15,41,16.30
2019,04,02,15,42,16.30
2019,04,02,15,43,16.30
2019,04,02,15,44,16.30
2019,04,02,15,45,16.30
2019,04,02,15,46,16.30
2019,04,02,15,47,16.30
2019,04,02,15,48,16.30
2019,04,02,15,49,16.40
2019,04,02,15,50,16.40
2019,04,02,15,51,16.40
2019,04,02,15,52,16.50
2019,04,02,15,53,16.50
2019,04,02,15,54,16.60
2019,04,02,15,55,16.60
2019,04,02,15,56,16.70
2019,04,02,15,57,16.70
2019,04,02,15,58,16.80
2019,04,02,15,59,16.80
2019,04,02,16,00,16.80
2019,04,02,16,01,16.90
2019,04,02,16,02,16.80
2019,04,02,16,03,16.90
2019,04,02,16,04,16.90
2019,04,02,16,05,16.90
2019,04,02,16,06,16.90
2019,04,02,16,07,17.00
2019,04,02,16,08,17.00
2019,04,02,16,09,17.00
2019,04,02,16,10,17.00
2019,04,02,16,11,17.00
2019,04,02,16,12,17.00
2019,04,02,16,13,17.00
2019,04,02,16,14,16.90
2019,04,02,16,15,16.90
2019,04,02,16,16,16.90
2019,04,02,16,17,16.90
2019,04,02,16,18,16.90
2019,04,02,16,19,16.90
2019,04,02,16,20,16.90
2019,04,02,16,21,16.90
2019,04,02,16,22,17.00
2019,04,02,16,23,17.00
2019,04,02,16,24,17.10
2019,04,02,16,25,17.10
2019,04,02,16,26,17.10
2019,04,02,16,27,17.10
2019,04,02,16,28,17.20
2019,04,02,16,29,17.20
2019,04,02,16,30,17.20
2019,04,02,16,31,17.20
2019,04,02,16,32,17.20
2019,04,02,16,33,17.20
2019,04,02,16,34,17.20
2019,04,02,16,35,17.20
2019,04,02,16,36,17.20
2019,04,02,16,37,17.30
2019,04,02,16,38,17.30
2019,04,02,16,39,17.30
2019,04,02,16,40,17.40
2019,04,02,16,41,17.40
2019,04,02,16,42,17.40
2019,04,02,16,43,17.40
2019,04,02,16,44,17.50
2019,04,02,16,45,17.50
2019,04,02,16,46,17.60
2019,04,02,16,47,17.60
2019,04,02,16,48,17.60
2019,04,02,16,49,17.60
2019,04,02,16,50,17.60
2019,04,02,16,51,17.50
2019,04,02,16,52,17.50
2019,04,02,16,53,17.50
2019,04,02,16,54,17.50
2019,04,02,16,55,17.40
2019,04,02,16,56,17.40
2019,04,02,16,57,17.40
2019,04,02,16,58,17.30
2019,04,02,16,59,17.30
2019,04,02,17,00,17.30
2019,04,02,17,01,17.30
2019,04,02,17,02,17.20
2019,04,02,17,03,17.20
2019,04,02,17,04,17.20
2019,04,02,17,05,17.20
2019,04,02,17,06,17.10
2019,04,02,17,07,17.10
2019,04,02,17,08,17.10
2019,04,02,17,09,17.00
2019,04,02,17,10,17.00
2019,04,02,17,11,17.00
2019,04,02,17,12,17.00
2019,04,02,17,13,17.00
2019,04,02,17,14,17.00
2019,04,02,17,15,17.00
2019,04,02,17,16,17.00
2019,04,02,17,17,16.90
2019,04,02,17,18,16.90
2019,04,02,17,19,16.90
2019,04,02,17,20,17.00
2019,04,02,17,21,16.90
2019,04,02,17,22,16.90
2019,04,02,17,23,16.90
2019,04,02,17,24,16.90
2019,04,02,17,25,17.00
2019,04,02,17,26,17.00
2019,04,02,17,27,17.00
2019,04,02,17,28,17.00
2019,04,02,17,29,17.00
2019,04,02,17,30,17.00
2019,04,02,17,31,17.00
2019,04,02,17,32,17.00
2019,04,02,17,33,17.00
2019,04,02,17,34,17.00
2019,04,02,17,35,17.00
2019,04,02,17,36,17.00
2019,04,02,17,37,17.00
2019,04,02,17,38,17.00
2019,04,02,17,39,17.00